Weather History for Edinburg, TX

Change the Weather History Date:

Saturday, December 7, 2013

  Actual Average (KMFE) Record (KMFE)
Temperature  
Mean Temperature 42 °F 63 °F  
Max Temperature 46 °F 74 °F 90 °F (1978)
Min Temperature 38 °F 53 °F 26 °F (1887)
Degree Days  
Heating Degree Days 23 5  
Month to date heating degree days 30  
Since 1 July heating degree days 90  
Cooling Degree Days 0 3  
Month to date cooling degree days 23  
Year to date cooling degree days 4392  
Moisture  
Dew Point 30 °F    
Average Humidity 65    
Maximum Humidity 74    
Minimum Humidity 59    
Precipitation  
Precipitation 0.00 in 0.04 in 1.01 in (2006)
Month to date precipitation 0.23  
Year to date precipitation 21.24  
Sea Level Pressure  
Sea Level Pressure 30.35 in    
Wind  
Wind Speed 12 mph (North)    
Max Wind Speed 16 mph    
Max Gust Speed 21 mph    
Visibility 10 miles    
Events      
T = Trace of Precipitation, MM = Missing Value Source: NWS Daily Summary

Daily Weather History Graph

Daily Weather History Graph

Search for Another Location

Airport:

Trip Planner

Search our weather history database for the weather conditions in past years. The results will help you decide how hot, cold, wet, or windy it might be!

Date:

Astronomy

Dec. 07, 2013 Rise Set
Actual Time 7:07 AM CST 5:40 PM CST
Civil Twilight 6:42 AM CST 6:05 PM CST
Nautical Twilight 6:13 AM CST 6:34 PM CST
Astronomical Twilight 5:45 AM CST 7:02 PM CST
Moon 11:12 AM CST (12/7) 11:01 PM CST (12/7)
Length of Visible Light 11h 22m
Length of Day
10h 32m
Waxing Crescent, 29% of the Moon is Illuminated
Dec 7
Waxing Crescent
Dec 9
First Quarter
Dec 17
Full
Dec 25
Last Quarter
Jan 1
New

Hourly Weather History & Observations

Time (CST) Temp. Windchill Dew Point Humidity Pressure Visibility Wind Dir Wind Speed Gust Speed Precip Events Conditions
12:15 AM 46.4 °F 40.4 °F 32.9 °F 59% 30.37 in 10.0 mi North 13.8 mph 19.6 mph N/A   Overcast
12:35 AM 45.1 °F 38.1 °F 32.0 °F 60% 30.38 in 10.0 mi North 16.1 mph - N/A   Overcast
12:55 AM 44.2 °F 37.3 °F 31.8 °F 62% 30.38 in 10.0 mi North 15.0 mph - N/A   Overcast
1:15 AM 43.9 °F 37.5 °F 31.6 °F 62% 30.38 in 10.0 mi North 12.7 mph - N/A   Overcast
1:35 AM 43.3 °F 36.1 °F 31.8 °F 64% 30.38 in 10.0 mi North 15.0 mph 18.4 mph N/A   Overcast
1:55 AM 42.8 °F 37.0 °F 32.0 °F 66% 30.38 in 10.0 mi North 10.4 mph - N/A   Overcast
2:15 AM 42.8 °F 35.8 °F 31.3 °F 64% 30.38 in 10.0 mi North 13.8 mph - N/A   Overcast
2:35 AM 42.4 °F 35.0 °F 30.4 °F 62% 30.37 in 10.0 mi North 15.0 mph 20.7 mph N/A   Overcast
2:55 AM 41.9 °F 35.0 °F 30.4 °F 64% 30.37 in 10.0 mi North 12.7 mph 18.4 mph N/A   Overcast
3:15 AM 41.2 °F 34.1 °F 30.9 °F 67% 30.38 in 10.0 mi North 12.7 mph - N/A   Overcast
4:15 AM 41.2 °F 33.4 °F 29.7 °F 64% 30.37 in 10.0 mi North 15.0 mph 19.6 mph N/A   Overcast
5:55 AM - - - N/A% 30.38 in 10.0 mi North 11.5 mph - N/A   Overcast
6:15 AM 40.5 °F 33.2 °F 28.8 °F 63% 30.38 in 10.0 mi North 12.7 mph - N/A   Overcast
6:35 AM 40.3 °F 33.4 °F 28.6 °F 63% 30.39 in 10.0 mi North 11.5 mph - N/A   Overcast
6:55 AM 40.3 °F 33.4 °F 28.6 °F 63% 30.40 in 10.0 mi North 11.5 mph - N/A   Overcast
7:15 AM 40.3 °F 34.4 °F 29.1 °F 64% 30.40 in 10.0 mi North 9.2 mph 16.1 mph N/A   Overcast
7:35 AM 40.1 °F 34.1 °F 28.8 °F 64% 30.41 in 10.0 mi North 9.2 mph 16.1 mph N/A   Overcast
7:55 AM 40.3 °F 33.9 °F 29.1 °F 64% 30.41 in 10.0 mi North 10.4 mph - N/A   Overcast
8:15 AM 40.1 °F 33.2 °F 28.8 °F 64% 30.42 in 10.0 mi North 11.5 mph - N/A   Overcast
8:35 AM 40.1 °F 33.2 °F 28.9 °F 64% 30.42 in 10.0 mi North 11.5 mph - N/A   Overcast
8:55 AM 40.1 °F 34.7 °F 28.9 °F 64% 30.42 in 10.0 mi North 8.1 mph - N/A   Overcast
9:15 AM 40.1 °F 33.2 °F 29.1 °F 65% 30.43 in 10.0 mi North 11.5 mph - N/A   Overcast
9:35 AM 40.3 °F 32.6 °F 29.3 °F 65% 30.43 in 10.0 mi North 13.8 mph - N/A   Overcast
9:55 AM 40.5 °F 33.2 °F 29.7 °F 65% 30.43 in 10.0 mi North 12.7 mph - N/A   Overcast
10:15 AM 40.3 °F 33.9 °F 29.8 °F 66% 30.44 in 10.0 mi North 10.4 mph - N/A   Overcast
10:35 AM 40.5 °F 33.6 °F 29.7 °F 65% 30.44 in 10.0 mi North 11.5 mph - N/A   Overcast
10:55 AM 40.5 °F 33.2 °F 29.7 °F 65% 30.43 in 10.0 mi North 12.7 mph - N/A   Overcast
11:15 AM 40.8 °F 34.1 °F 29.7 °F 64% 30.43 in 10.0 mi NNW 11.5 mph 18.4 mph N/A   Overcast
11:35 AM 40.6 °F 34.3 °F 29.5 °F 64% 30.42 in 10.0 mi North 10.4 mph - N/A   Overcast
11:55 AM 41.4 °F 35.2 °F 29.7 °F 63% 30.41 in 10.0 mi NNW 10.4 mph - N/A   Overcast
12:15 PM 41.4 °F 35.2 °F 29.3 °F 62% 30.40 in 10.0 mi North 10.4 mph - N/A   Overcast
12:35 PM 41.4 °F 34.7 °F 29.7 °F 63% 30.38 in 10.0 mi North 11.5 mph - N/A   Overcast
12:55 PM 41.4 °F 35.2 °F 29.3 °F 62% 30.37 in 10.0 mi NNW 10.4 mph - N/A   Overcast
1:15 PM 41.7 °F 36.1 °F 29.7 °F 62% 30.35 in 10.0 mi North 9.2 mph - N/A   Overcast
1:35 PM 42.1 °F 36.6 °F 29.5 °F 61% 30.34 in 10.0 mi North 9.2 mph - N/A   Overcast
1:55 PM 42.1 °F 35.2 °F 29.7 °F 61% 30.33 in 10.0 mi North 12.7 mph 17.3 mph N/A   Overcast
2:15 PM 42.3 °F 36.3 °F 29.7 °F 61% 30.31 in 10.0 mi North 10.4 mph - N/A   Overcast
2:35 PM 42.3 °F 36.3 °F 29.3 °F 60% 30.30 in 10.0 mi NNW 10.4 mph - N/A   Overcast
2:55 PM 42.4 °F 36.1 °F 29.1 °F 59% 30.30 in 10.0 mi North 11.5 mph - N/A   Overcast
3:15 PM 42.3 °F 36.3 °F 28.9 °F 59% 30.29 in 10.0 mi NNW 10.4 mph - N/A   Overcast
3:35 PM 42.3 °F 37.3 °F 29.1 °F 60% 30.28 in 10.0 mi North 8.1 mph - N/A   Overcast
3:55 PM 41.9 °F 35.9 °F 29.1 °F 61% 30.28 in 10.0 mi North 10.4 mph - N/A   Overcast
4:15 PM 41.9 °F 36.3 °F 28.8 °F 60% 30.28 in 10.0 mi North 9.2 mph - N/A   Overcast
4:35 PM 41.5 °F 35.4 °F 28.8 °F 60% 30.28 in 10.0 mi North 10.4 mph - N/A   Overcast
4:55 PM 41.5 °F 36.4 °F 28.8 °F 60% 30.28 in 10.0 mi North 8.1 mph - N/A   Overcast
5:15 PM 41.2 °F 35.0 °F 28.6 °F 61% 30.28 in 10.0 mi North 10.4 mph - N/A   Overcast
5:35 PM 41.2 °F 35.5 °F 28.9 °F 62% 30.28 in 10.0 mi NNW 9.2 mph - N/A   Overcast
5:55 PM 41.0 °F 35.8 °F 29.1 °F 63% 30.29 in 10.0 mi North 8.1 mph - N/A   Overcast
6:15 PM 40.8 °F 34.1 °F 29.1 °F 63% 30.29 in 10.0 mi North 11.5 mph - N/A   Overcast
6:35 PM 40.6 °F 34.8 °F 29.3 °F 64% 30.30 in 10.0 mi North 9.2 mph - N/A   Overcast
6:55 PM 40.3 °F 33.9 °F 29.8 °F 66% 30.31 in 10.0 mi North 10.4 mph - N/A   Overcast
7:15 PM 40.1 °F 34.7 °F 30.0 °F 67% 30.31 in 10.0 mi North 8.1 mph - N/A   Overcast
7:35 PM 40.1 °F 34.7 °F 30.2 °F 68% 30.31 in 10.0 mi North 8.1 mph - N/A   Overcast
7:55 PM 39.7 °F 34.9 °F 30.4 °F 69% 30.31 in 10.0 mi North 6.9 mph - N/A   Overcast
8:15 PM 39.6 °F 33.5 °F 30.4 °F 70% 30.31 in 10.0 mi North 9.2 mph - N/A   Overcast
8:35 PM 39.6 °F 34.7 °F 30.6 °F 70% 30.31 in 10.0 mi North 6.9 mph - N/A   Overcast
8:55 PM 39.4 °F 33.8 °F 30.2 °F 70% 30.31 in 10.0 mi North 8.1 mph - N/A   Overcast
9:15 PM 39.4 °F 33.8 °F 30.4 °F 70% 30.30 in 10.0 mi NNE 8.1 mph - N/A   Overcast
9:35 PM 39.2 °F 34.2 °F 30.4 °F 71% 30.31 in 10.0 mi North 6.9 mph - N/A   Overcast
9:55 PM 39.2 °F 33.6 °F 30.7 °F 72% 30.32 in 10.0 mi NNW 8.1 mph - N/A   Overcast
10:15 PM 38.8 °F 33.8 °F 30.7 °F 73% 30.33 in 10.0 mi North 6.9 mph - N/A   Overcast
10:35 PM 39.2 °F 34.2 °F 31.3 °F 73% 30.32 in 10.0 mi NNW 6.9 mph - N/A   Overcast
10:55 PM 38.8 °F 33.8 °F 30.9 °F 73% 30.32 in 10.0 mi NNW 6.9 mph - N/A   Overcast
11:15 PM 38.7 °F 32.4 °F 30.7 °F 73% 30.30 in 10.0 mi NNW 9.2 mph - N/A   Overcast
11:35 PM 38.5 °F 33.4 °F 30.7 °F 74% 30.29 in 10.0 mi North 6.9 mph - N/A   Overcast
11:55 PM 38.7 °F 33.6 °F 30.9 °F 74% 30.28 in 10.0 mi NNW 6.9 mph - N/A   Overcast